Retour au catalogue

CHANG'E 5

ActifScienceHCO
NORAD 47097·PAYLOAD·🇨🇳 China

Lancé Nov 23, 2020 depuis Wenchang Space Launch Site

Loading…

TLE

PériméSource: Space-Track

Époque: Feb 22, 2024, 06:52 UTC

1 47097U 20087A   24053.28652788 -.00013071  00000-0  00000+0 0  9996
2 47097  30.7677  10.7618 3781869 349.8514 126.8236  0.04182964   639

Suivez CHANG'E 5 en temps réel avec AllMySat

Download on the App Store